カタログに戻る

KZ-11 R/B

運用中PO
NORAD 68205·ROCKET BODY·🇨🇳 China

打ち上げ Mar 16, 2026 から Jiuquan Satellite Launch Center

Loading…

次のパス (今後24時間)

TLE

最新Source: Space-Track

元期: Sep 14, 2026, 14:37 UTC

1 68205U 26052H   26257.60968641  .00037954  17404-5  45555-3 0  9994
2 68205  97.3192 317.4788 0509394 135.7806 228.5316 14.79095435 26868

AllMySatでKZ-11 R/Bをリアルタイム追跡

Download on the App Store